This is the latest recevied weather packets stored in our database for station/object K3RUP-1. If no packets are shown the sender has not sent any weather packets the latest 1 day(s).
| Time | Temp. | Humidity | Pressure | Rain* | Wind** | Luminosity | Snow |
|---|---|---|---|---|---|---|---|
| 1778036024 | 20° C | 65% | 1010.1 hPa | 0 mm | 0 m/s | 0 W/m² | - |
| 1778035722 | 19.44° C | 66% | 1010 hPa | 0 mm | 0 m/s | 0 W/m² | - |
| 1778035419 | 19.44° C | 66% | 1010.1 hPa | 0 mm | 0 m/s | 0 W/m² | - |
| 1778035115 | 19.44° C | 66% | 1010.2 hPa | 0 mm | 0 m/s | 0 W/m² | - |
| 1778034811 | 18.89° C | 68% | 1010.3 hPa | 0 mm | 0 m/s | 0 W/m² | - |
| 1778034508 | 18.89° C | 70% | 1010.2 hPa | 0 mm | 0 m/s | 0 W/m² | - |
| 1778034206 | 18.89° C | 70% | 1010.3 hPa | 0 mm | 0 m/s | 0 W/m² | - |
| 1778033904 | 18.89° C | 71% | 1010.1 hPa | 0 mm | 0 m/s | 0 W/m² | - |
| 1778033601 | 18.89° C | 69% | 1009.9 hPa | 0 mm | 0 m/s | 0 W/m² | - |
| 1778033297 | 18.89° C | 70% | 1010.1 hPa | 0 mm | 0 m/s | 0 W/m² | - |
| 1778032995 | 18.33° C | 72% | 1010.1 hPa | 0 mm | 0 m/s | 0 W/m² | - |
| 1778032693 | 18.89° C | 71% | 1010.2 hPa | 0 mm | 0 m/s | 0 W/m² | - |
| 1778032390 | 18.33° C | 71% | 1010.5 hPa | 0 mm | 0 m/s | 0 W/m² | - |
| 1778032087 | 18.89° C | 72% | 1010.1 hPa | 0 mm | 0 m/s | 0 W/m² | - |
| 1778031783 | 18.33° C | 72% | 1009.8 hPa | 0 mm | 0 m/s | 0 W/m² | - |
| 1778031480 | 18.33° C | 73% | 1010 hPa | 0 mm | 0 m/s | 0 W/m² | - |
| 1778031177 | 18.33° C | 74% | 1009.9 hPa | 0 mm | 0 m/s | 0 W/m² | - |
| 1778030874 | 18.89° C | 73% | 1009.9 hPa | 0 mm | 0 m/s | 0 W/m² | - |
| 1778030571 | 18.89° C | 72% | 1009.8 hPa | 0 mm | 0 m/s | 0 W/m² | - |
| 1778030268 | 18.89° C | 71% | 1009.7 hPa | 0 mm | 0 m/s | 0 W/m² | - |
| 1778029964 | 19.44° C | 70% | 1009.5 hPa | 0 mm | 0 m/s | 0 W/m² | - |
| 1778029663 | 19.44° C | 71% | 1009.4 hPa | 0 mm | 0 m/s | 0 W/m² | - |
| 1778029360 | 19.44° C | 70% | 1009.3 hPa | 0 mm | 0 m/s | 0 W/m² | - |
| 1778029057 | 19.44° C | 69% | 1009.4 hPa | 0 mm | 0 m/s | 0 W/m² | - |
| 1778028753 | 20° C | 70% | 1009.5 hPa | 0 mm | 0 m/s | 0 W/m² | - |
* Rain latest hour (hover to see other rain measurements)
** Current wind speed in m/s (hover to see current wind gust speed)